Location: Bidwell Hollow
(37.7387°N, 90.1707°W)
Time: 02:34:58
(UTC+00:00)

Vanguard 3 - Pass Details

Date: 17 May 2026
Orbit: 507 x 3204 km, 33.3° (Epoch: 6 June)

Event Time Altitude Azimuth Distance (km) Brightness Sun altitude
Rises 02:07:02 0° 283° (WNW) 6,802 13.2 -11.4°
Reaches altitude 10° 02:13:12 10° 272° (W) 5,417 12.2 -12.4°
Maximum altitude 02:23:53 24° 227° (SW) 3,515 10.5 -14.1°
Drops below altitude 10° 02:31:27 10° 179° (S) 3,697 10.1 -15.3°
Enters shadow 02:32:37 - 173° (S) 3,880 10.2 -15.4°
Sets 02:34:43 0° 165° (SSE) 4,290 - -15.7°
